Regional Weather Roundup
Issued by NWS

Home | Current Version | Previous Version | Text Only | Print | Product List | Glossary On
Versions: 1 2 3 4 5 6 7 8 9 10 11 12 13 14 15 16 17 18 19 20 21 22 23 24 25 26 27 28 29 30 31 32 33 34 35 36 37 38 39 40 41 42 43 44 45 46 47 48 49 50
000
ASUS45 KTFX 202119
RWRMT
MONTANA HOURLY WEATHER ROUNDUP
NATIONAL WEATHER SERVICE GREAT FALLS MT
319 PM MDT SAT SEP 20 2014

NOTE: "FAIR" INDICATES FEW OR NO CLOUDS BELOW 12000 FEET WITH NO
SIGNIFICANT WEATHER AND/OR OBSTRUCTIONS TO VISIBILITY.

* THESE STATIONS ARE NOT UNDER NWS QUALITY CONTROL. THEY DO NOT
   REPORT WEATHER SUCH AS PRECIPITATION OR FOG.

MTZ001>007-043-202200-
WEST OF THE DIVIDE
CITY           SKY/WX    TMP DP  RH WIND       PRES   REMARKS
KALISPELL      SUNNY     75  45  34 CALM      30.19F
MISSOULA       SUNNY     79  43  28 N3        30.18F
BUTTE          SUNNY     72  30  21 CALM      30.28F
MULLAN PASS    SUNNY     66  39  37 VRB3      30.31F
* ESSEX        N/A       72  42  34 NE3        N/A
* LINCOLN      N/A       76  38  25 S4G10      N/A
* LOOKOUT PASS N/A       69  43  39 S5G11      N/A
* POLSON       N/A       77  46  33 E3         N/A
* RONAN APT    SUNNY     75  45  34 NW6        N/A
* SEELEY LAKE  N/A       74  40  29 N4G9       N/A
* THOMP F APT  SUNNY     81  45  28 VRB7       N/A
$$

MTZ008-052>055-202200-
SOUTHWEST MONTANA
CITY           SKY/WX    TMP DP  RH WIND       PRES   REMARKS
BOZEMAN        SUNNY     72  39  30 CALM      30.25F
DILLON         SUNNY     72  39  30 VRB3      30.25F
W YELLOWSTONE  SUNNY     70  27  20 CALM      30.32F
* THREE FORKS  SUNNY     73  57  57 N/A        N/A
* BOULDER HILL N/A       71  38  30 SW8        N/A
* MONIDA PASS  N/A       70  38  31 NE6G11     N/A
* RAYNOLDS PAS N/A       72  22  15 N2G7       N/A
* WHITEHALL    N/A       76  37  24 S3G8       N/A
* WISE RIVER   N/A       72  30  21 SE11       N/A
$$

MTZ009>010-012-014-046-048-049-054-202200-
EAST SLOPES AND CENTRAL MONTANA
CITY           SKY/WX    TMP DP  RH WIND       PRES   REMARKS
CUT BANK       SUNNY     72  45  38 S8        30.23F
GREAT FALLS    SUNNY     72  43  35 VRB7      30.22F
HELENA         SUNNY     75  39  27 E8        30.20F
MALMSTROM AFB  SUNNY     72  43  35 E5G13     30.24F
* CONRAD       SUNNY     72  46  40 N/A        N/A
* EAST GLACIER N/A       67  44  44 SE8        N/A
* MONARCH      N/A       65  40  40 N6         N/A
* PENDROY      N/A       70  48  46 NE2G9      N/A
* ROGERS PASS  N/A       71  38  30 S3G11      N/A
* SAINT MARY   N/A       72  38  29 W6G11      N/A
* SWEET GRASS  N/A       68  38  33 SW7        N/A
* WHITE SULPH  N/A       74  41  31 SW3G9      N/A
$$

MTZ011-013-016-021-035-040-045-047-050-051-202200-
NORTH CENTRAL MONTANA
CITY           SKY/WX    TMP DP  RH WIND       PRES   REMARKS
HAVRE          SUNNY     73  36  26 NW8       30.22S
LEWISTOWN      SUNNY     70  43  38 CALM      30.27S
* CHINOOK      SUNNY     72  37  28 W12       30.21F
* FORT BENTON  SUNNY     72  39  30 SE3       30.23F
* CHESTER      N/A       72  37  28 SW2G9      N/A
* DENTON       N/A       72  46  40 N9G15      N/A
* GEYSER       N/A       69  45  42 NE9        N/A
* JUDITH GAP   N/A       67  45  45 N6G13      N/A
* LOMA         N/A       71  39  31 SE2G7      N/A
$$

MTZ017>020-022>027-061-062-202200-
NORTHEAST MONTANA
CITY           SKY/WX    TMP DP  RH WIND       PRES   REMARKS
GLASGOW        SUNNY     72  36  27 NW23G29   30.15F
JORDAN         SUNNY     73  39  29 NW12G22   30.20S
SIDNEY         PTCLDY    73  36  26 NW22G30   30.11S
WOLF POINT     SUNNY     73  37  27 NW22      30.12F
* BEAVER HILL  N/A       71  36  28 NW26G35    N/A
* CIRCLE       N/A       72  40  31 NW9G19     N/A
* LINDSAY DVD  N/A       69  35  29 W32G38     N/A
$$

MTZ028>042-056>058-202200-
SOUTHCENTRAL AND SOUTHEAST MONTANA
CITY           SKY/WX    TMP DP  RH WIND       PRES   REMARKS
BAKER          PTCLDY    73  36  26 NW18G30   30.16R
BILLINGS       SUNNY     73  37  27 NE8       30.24F
LIVINGSTON     SUNNY     77  36  23 NE8       30.23F
MILES CITY     SUNNY     75  37  25 NW16      30.19S
* LAUREL APT   SUNNY     73  37  27 E9         N/A
* ROUNDUP APT  SUNNY     73  43  34 N/A        N/A
* ALZADA       N/A       73  39  29 NW12       N/A
* HYSHAM       N/A       72  41  33 S1G11      N/A
* LAME DEER    N/A       67  40  37 N9G16      N/A
* REED POINT   N/A       76  43  31 NE4        N/A
* ROSCOE HILL  N/A       69  33  26 E4G11      N/A
$$

REGIONAL REPORTS...DAKOTAS
CITY           SKY/WX    TMP DP  RH WIND       PRES   REMARKS
WILLISTON      PTSUNNY   72  36  27 NW29      30.07R
DICKINSON      SUNNY     72  37  28 NW21G31   30.06S
BEACH          N/A       70  36  29 NW25G33   30.13R
CROSBY         SUNNY     68  37  32 NW26G37   30.03R
TIOGA          SUNNY     68  32  26 NW30G39   30.05S
WATFORD CITY   SUNNY     72  32  23 NW26G32   30.04S
BISMARCK       PTSUNNY   72  43  35 NW25G36   30.00R
GRAND FORKS    PTSUNNY   63  52  68 NW17G28   29.80R
FARGO          LGT RAIN  64  54  70 NW24G32   29.83R
BUFFALO SD     SUNNY     73  37  27 NW24G35   30.10R
RAPID CITY     SUNNY     75  39  27 N24G40    30.15S
$$

REGIONAL REPORTS...WYOMING/IDAHO/WASHINGTON
CITY           SKY/WX    TMP DP  RH WIND       PRES   REMARKS
GILLETTE       SUNNY     72  37  28 N21G28    30.25R
SHERIDAN       SUNNY     73  41  32 N10       30.26S
CODY           SUNNY    N/A N/A N/A N/A        N/A
YELLOWSTONE LA SUNNY     63  37  38 VRB3      30.42F
SALMON         SUNNY     75  45  34 CALM      30.13F
MULLAN PASS    SUNNY     66  39  37 VRB3      30.31S
SAND POINT     SUNNY     75  50  42 E3        30.16F
SPOKANE        SUNNY     79  46  31 NE10      30.14F
$$

REGIONAL REPORTS...ALBERTA
CITY           SKY/WX    TMP DP  RH WIND       PRES   REMARKS
CALGARY        SUNNY     66  36  33 S10       30.21F
LETHBRIDGE     SUNNY     70  39  32 E9        30.21F
MEDICINE HAT   SUNNY     70  37  30 NW8       30.21F
EDMONTON       SUNNY     68  37  32 W10G18    30.14F
WATERTON GATE  N/A       72  45  38 E8         N/A
CARDSTON       N/A       72  45  38 NE2        N/A
MILK RIVER     N/A       70  37  30 SE6        N/A
$$

REGIONAL REPORTS...SASKATCHEWAN
CITY           SKY/WX    TMP DP  RH WIND       PRES   REMARKS
SWIFT CURRENT  SUNNY     66  34  31 NW21G29   30.13S
REGINA         SUNNY     68  41  38 NW30G45   30.01S
VAL MARIE      N/A       70  34  27 NW18G25    N/A
ASSINIBOIA     N/A       66  34  31 NW26G35    N/A
CORONACH       N/A       68  37  32 W23G29     N/A

$$



USA.gov is the U.S. government's official web portal to all federal, state and local government web resources and services.